Theta_e
318 319 319 319 320 320 319 319 318 318 318 318 320 321 321 320 320 320 321 321 322 320 319 320 316 316 313 305 304 315 318 320 319 317 313 309 307 306 301 304 302 301 302 302 303 304 306
319 318 319 319 319 319 319 318 318 317 317 318 319 320 320 320 320 320 320 320 321 322 319 321 316 316 309 298 315 318 316 317 316 314 310 308 306 307 302 302 301 302 302 302 302 303 305
318 318 319 319 319 319 319 319 318 317 318 319 319 319 319 319 319 319 319 320 320 321 320 317 313 313 307 302 316 318 316 315 316 314 308 310 309 304 305 301 304 302 298 301 301 303 303
317 318 317 318 318 319 319 318 318 318 318 318 318 318 318 318 319 319 319 318 319 321 320 316 315 313 302 313 317 313 316 314 315 315 311 312 311 306 304 304 301 298 299 294 299 301 303
316 316 317 318 318 319 319 318 318 317 318 318 317 317 317 318 318 319 317 316 319 317 318 315 312 309 300 315 308 311 313 309 312 313 312 312 307 303 302 298 294 296 291 292 295 301 302
316 317 317 317 318 318 319 318 317 317 317 317 317 316 317 317 318 318 315 315 317 314 312 312 311 304 305 303 309 310 314 311 308 309 306 305 301 298 299 296 287 290 291 294 293 298 301
316 316 316 317 317 318 318 318 318 317 316 316 317 316 316 317 318 317 313 312 307 305 307 303 303 302 303 308 312 309 313 310 308 304 296 300 295 292 295 297 296 295 294 293 297 298 300
316 316 316 317 317 318 318 318 317 317 317 316 316 316 316 316 315 315 313 305 304 307 299 304 304 304 307 308 301 305 311 302 300 293 299 295 291 295 296 296 296 295 294 293 295 297 299
315 316 316 317 317 318 318 318 317 317 316 316 315 315 315 315 314 313 309 306 311 310 300 298 302 301 302 306 300 301 305 303 297 294 295 292 293 296 295 295 294 295 293 294 294 295 299
315 316 316 316 317 317 317 317 318 316 315 316 314 315 315 313 308 310 307 309 311 310 297 294 298 301 302 303 298 304 305 301 298 294 295 294 296 294 295 293 294 292 295 295 295 294 291
315 315 316 316 317 317 317 317 317 317 315 315 315 314 313 312 310 308 308 311 311 306 284 296 297 306 303 299 300 301 304 301 294 294 295 291 294 294 293 292 295 292 295 296 297 295 296
314 315 315 316 316 316 317 317 317 317 316 314 314 313 311 312 312 309 311 310 306 294 285 292 298 297 297 298 297 300 300 302 300 296 297 294 298 296 295 295 296 295 293 294 295 294 292
313 314 314 315 316 316 317 317 317 317 316 315 313 311 311 310 306 311 310 307 297 288 294 291 293 296 295 294 294 296 295 294 292 288 290 293 293 297 298 294 296 294 292 290 288 289 287
314 314 314 314 315 316 316 317 317 316 316 314 311 309 308 309 313 311 308 301 287 289 290 296 295 294 292 294 293 294 293 293 296 294 291 290 286 293 297 294 292 293 292 290 282 284 286
314 314 315 315 315 315 316 316 316 316 315 313 308 314 312 312 312 310 304 295 290 291 294 293 294 291 291 293 293 293 293 292 294 295 289 289 288 295 295 296 295 293 291 292 289 287 289
314 314 315 315 314 314 315 316 316 315 314 312 312 310 310 310 311 307 302 291 293 295 296 296 290 292 289 291 291 291 291 293 293 296 297 291 287 292 294 295 296 293 294 290 291 286 284
314 314 315 315 315 315 315 315 315 315 314 310 311 306 309 309 309 305 297 293 295 297 297 295 293 292 291 290 292 290 290 293 296 295 297 295 291 290 293 291 291 292 291 290 291 289 287
314 315 315 315 314 314 314 314 315 315 313 309 310 306 310 309 304 301 296 295 296 296 298 296 296 294 292 292 291 291 291 293 297 296 292 294 292 288 289 293 295 293 292 291 288 286 288
315 315 315 314 313 313 313 313 314 314 312 308 304 305 311 308 299 297 296 295 296 295 295 295 293 294 294 291 288 291 292 297 297 296 293 294 291 286 286 290 293 291 292 291 291 291 288
315 315 315 314 313 313 313 313 313 314 311 308 304 303 305 305 301 297 294 293 292 297 295 295 294 295 292 291 292 289 290 294 296 296 294 294 290 288 286 286 291 288 290 291 291 288 288
315 315 315 314 314 313 313 312 312 313 310 308 303 301 298 297 298 296 295 294 292 292 295 296 293 293 292 289 290 289 292 293 294 295 294 291 286 286 288 288 288 289 289 291 288 290 287
315 315 315 315 314 313 313 312 312 312 310 308 301 299 300 298 297 296 294 294 293 293 294 293 292 293 293 291 291 290 291 292 291 295 293 293 288 288 286 287 287 285 287 288 290 290 290
316 316 315 315 314 313 312 311 312 311 310 307 304 304 302 296 296 295 296 294 294 295 295 296 295 294 292 293 295 296 296 295 295 293 292 291 289 287 286 287 288 286 289 289 288 290 290
316 316 315 315 314 313 312 311 311 310 308 308 305 304 300 294 295 295 294 294 294 295 294 296 296 294 296 299 298 296 296 294 294 293 294 291 289 289 286 288 282 288 291 291 290 291 292
311 313 314 315 315 314 312 311 311 311 308 308 306 304 301 294 295 295 295 295 295 296 295 295 296 297 299 296 293 290 289 288 289 291 292 293 291 288 285 285 290 288 287 288 288 289 293
307 308 308 309 309 311 313 312 311 311 308 309 306 305 303 296 294 296 295 296 294 294 294 294 296 299 297 295 292 287 286 287 286 286 291 290 292 289 286 282 281 288 290 293 292 285 293
305 305 305 306 307 307 308 310 312 311 310 309 308 306 304 297 299 297 295 294 297 295 294 294 294 294 296 293 289 287 287 288 285 285 285 286 287 285 286 284 288 292 292 293 284 287 294
304 304 304 304 305 305 306 308 309 310 311 309 308 306 304 300 301 299 299 297 296 296 293 295 294 293 292 289 289 290 288 289 286 288 287 287 286 285 287 284 282 294 291 287 293 295 296
304 304 304 304 304 304 306 306 307 308 308 309 305 306 306 301 301 302 303 304 301 300 298 296 295 294 296 293 292 292 288 289 289 285 289 285 290 289 290 290 294 295 294 296 296 296 296
Wind_Speed
10 11 12 14 14 14 14 14 12 11 10 11 11 11 12 12 11 11 10 10 9 8 7 8 6 6 7 2 6 9 12 7 3 3 11 11 11 11 12 15 16 14 15 2 2 5 8
11 12 13 14 15 15 15 16 14 12 11 11 12 11 12 12 11 11 10 10 9 8 6 8 5 8 5 3 9 8 7 4 5 2 7 7 4 9 13 14 13 15 10 5 5 7 6
12 13 14 15 15 16 16 16 15 13 12 12 12 12 12 12 12 11 12 10 10 7 7 5 3 2 14 5 8 7 4 3 5 1 5 3 6 10 6 10 8 13 9 8 6 7 5
12 13 13 15 16 16 17 17 15 14 13 13 13 12 12 13 13 12 11 11 5 5 6 4 4 3 5 3 6 5 3 3 6 6 6 4 5 10 8 5 7 16 11 11 6 6 3
12 12 14 15 16 17 17 17 16 15 13 13 12 13 13 14 14 13 11 3 2 4 2 3 4 3 2 12 3 5 7 3 5 8 6 2 7 7 3 12 11 16 12 17 7 5 4
12 12 13 14 16 17 18 18 18 17 15 14 13 12 13 14 13 11 7 1 1 5 4 4 5 3 4 6 4 3 3 1 2 6 4 6 6 7 9 12 12 16 18 13 11 7 11
12 12 13 14 16 17 18 19 19 18 16 14 13 12 12 12 12 12 7 4 4 5 10 8 10 10 2 2 2 4 4 3 4 7 1 5 7 10 12 11 13 16 17 11 11 3 9
12 13 14 14 16 17 18 20 20 20 18 15 14 13 12 11 12 10 6 3 3 3 2 3 2 2 6 3 5 4 3 1 4 4 10 6 4 3 6 5 8 12 16 13 4 2 4
12 13 14 15 16 17 18 19 20 20 19 17 14 13 13 11 7 3 5 3 0 2 5 3 1 4 3 6 5 4 4 7 3 3 6 2 7 3 4 4 5 4 13 13 11 6 4
12 13 14 15 16 17 18 18 19 21 20 17 14 12 12 11 1 2 3 2 2 2 1 11 3 4 2 2 3 4 4 4 0 3 2 6 3 3 4 5 7 7 8 2 13 13 7
12 13 14 15 16 17 18 19 20 19 20 17 15 13 10 8 2 0 4 1 2 4 3 9 5 1 1 3 1 4 0 3 3 5 3 4 5 9 9 6 11 7 3 6 10 5 6
12 13 14 15 16 17 18 18 19 19 19 18 12 11 8 2 2 4 2 1 4 0 3 3 4 7 3 4 1 5 2 1 3 6 11 4 1 5 6 5 4 9 6 7 5 5 2
11 13 14 15 16 17 17 18 18 19 19 17 9 7 5 2 3 2 2 4 0 5 1 6 4 6 4 6 3 5 6 6 3 4 3 5 5 2 6 3 3 2 7 3 3 2 3
8 11 13 14 15 16 17 18 19 19 19 15 8 6 3 3 2 3 3 3 5 2 2 2 3 5 4 8 4 4 3 4 10 6 1 2 2 7 9 5 5 3 4 3 3 5 5
8 10 11 13 14 16 18 19 19 20 19 13 6 2 1 3 4 3 5 5 2 2 3 6 4 3 3 3 4 3 6 6 7 10 5 1 4 0 2 5 4 2 2 3 1 2 2
8 9 10 12 15 16 18 19 20 21 20 11 2 2 1 5 4 5 2 3 3 3 5 4 5 4 4 5 1 2 5 4 5 7 4 4 3 1 3 2 1 4 2 3 2 2 3
8 8 8 10 13 14 15 18 20 21 22 8 2 2 3 4 3 1 4 4 1 1 3 5 5 4 3 4 4 2 4 3 6 6 4 5 4 3 2 1 5 2 2 1 2 3 3
8 8 7 8 11 13 14 17 18 20 23 5 2 2 3 1 1 2 3 2 0 1 1 1 3 4 5 5 4 2 3 4 6 5 4 5 5 2 1 2 2 4 3 4 3 2 2
8 6 6 7 9 11 14 16 18 18 14 5 5 2 2 2 2 3 3 3 1 3 2 1 1 1 2 4 2 3 3 3 6 5 5 5 1 3 3 4 3 4 1 2 2 3 4
6 6 7 6 8 10 12 14 17 17 15 3 4 2 2 3 2 3 1 1 2 1 1 2 2 2 2 1 2 2 1 1 2 3 4 5 3 5 4 3 2 2 4 4 5 3 2
8 6 7 7 7 9 11 13 16 17 13 4 3 3 3 2 3 3 1 1 2 2 2 2 2 3 3 2 1 1 0 2 2 0 2 4 4 3 5 3 3 5 5 8 10 9 5
9 7 7 6 7 8 9 11 15 19 16 1 3 3 2 1 1 2 2 2 2 1 2 2 3 1 2 3 5 4 4 1 3 2 2 0 1 2 4 1 5 8 11 12 12 13 13
9 9 8 6 6 7 8 10 12 16 14 2 1 2 3 2 1 3 1 2 1 1 2 3 3 3 3 1 3 2 2 3 4 4 3 4 2 2 3 3 8 11 14 15 7 7 10
9 9 9 7 6 6 6 7 10 11 10 3 3 3 3 2 3 1 1 1 2 3 2 1 3 3 4 1 1 2 2 2 3 1 2 4 3 2 4 5 4 3 4 5 10 5 11
15 13 5 7 6 5 5 4 6 7 9 3 2 3 3 4 3 4 4 3 2 3 4 3 2 3 0 2 4 4 4 3 2 1 3 3 4 3 3 4 10 6 5 6 9 6 11
15 15 15 15 15 13 5 4 3 3 4 3 2 1 2 4 2 3 2 1 3 3 3 3 2 1 2 3 3 3 3 4 2 2 1 3 5 4 1 4 5 5 5 1 1 6 10
12 13 14 15 14 14 12 13 7 4 1 3 2 2 3 3 2 1 2 3 2 2 3 2 3 3 2 3 4 4 4 1 3 3 4 3 4 8 8 6 8 8 8 4 4 4 8
8 9 10 10 11 12 11 11 10 12 1 1 1 1 3 3 5 3 2 3 2 3 5 4 3 3 3 4 3 3 3 2 3 0 4 6 5 6 4 5 8 9 6 5 5 4 4
6 4 5 7 8 9 11 10 11 11 12 4 3 2 2 4 3 2 5 8 6 6 4 3 4 1 1 4 2 2 3 2 4 4 3 5 7 4 7 2 3 11 2 5 2 1 4
Wind_Direction
33 27 23 20 13 4 2 359 358 350 337 327 328 331 329 327 331 328 327 315 307 302 317 333 345 326 274 65 32 340 331 335 282 251 217 214 207 209 211 201 178 225 203 213 290 276 253
29 25 21 16 17 8 6 5 1 351 337 328 324 327 324 324 329 325 321 311 292 286 298 329 6 303 270 56 333 338 338 317 19 217 97 63 6 311 280 184 183 204 167 173 200 174 203
22 24 18 16 9 8 6 6 2 353 344 332 326 326 322 322 325 326 324 315 293 273 282 344 18 303 59 12 331 349 343 24 33 29 125 117 332 315 240 151 200 183 164 168 175 168 174
20 21 16 12 11 6 8 6 3 356 349 340 332 328 325 323 322 326 330 311 289 263 279 299 305 318 73 353 310 1 330 116 72 99 84 166 298 291 284 124 171 179 189 177 145 163 171
18 15 10 8 5 3 3 3 0 356 351 346 339 334 329 326 324 329 338 310 31 95 216 265 280 319 26 316 30 17 31 42 107 115 145 204 272 278 208 184 164 186 184 193 150 176 195
11 12 8 4 4 1 359 359 358 356 349 344 340 335 328 324 321 325 337 284 158 175 177 196 11 188 30 358 354 344 41 33 287 132 152 221 246 206 205 190 177 179 187 185 164 164 210
4 7 4 5 2 0 360 357 355 355 349 339 334 331 329 324 321 321 293 232 245 181 44 59 43 82 280 339 306 70 45 6 121 42 136 205 216 188 187 192 306 181 183 166 95 154 211
4 4 1 2 1 359 359 358 355 353 352 342 330 326 327 325 319 306 294 32 47 6 92 136 167 344 14 309 59 81 228 39 53 162 236 175 176 360 334 295 301 163 174 141 111 233 228
7 3 359 358 359 358 356 356 354 354 353 346 332 324 326 327 306 274 73 75 144 247 277 110 289 318 351 332 21 38 330 107 147 335 67 168 52 358 273 205 205 236 172 149 165 165 70
7 3 357 356 356 356 354 353 352 353 352 348 340 330 325 330 212 122 74 104 238 249 208 6 22 59 2 303 343 74 7 335 30 44 103 53 36 350 185 144 323 164 51 147 154 183 157
0 359 356 353 352 351 353 352 350 348 351 345 340 332 325 355 53 284 55 312 262 241 35 342 8 40 40 356 31 120 135 243 23 329 266 32 15 357 58 0 305 94 112 165 176 133 115
354 355 356 352 349 348 348 346 346 345 346 344 339 335 321 257 88 46 349 274 247 47 46 10 345 356 29 64 350 309 340 194 327 82 77 86 69 28 359 359 40 106 144 156 183 148 160
346 351 351 351 347 344 342 342 344 345 345 345 342 343 346 317 34 7 290 223 325 54 262 346 338 341 345 13 7 12 28 48 38 47 17 74 45 43 16 250 90 240 196 160 142 190 91
348 347 343 345 346 341 341 341 344 344 343 341 330 317 41 30 345 295 234 242 61 260 352 4 308 311 29 356 71 349 289 75 49 359 67 132 150 4 354 29 356 4 332 309 148 176 122
341 341 333 335 341 342 340 340 343 343 343 334 311 172 239 31 314 260 254 42 83 4 353 319 276 306 93 52 311 334 45 30 30 9 342 166 97 215 356 28 311 89 250 357 81 83 210
313 321 327 330 336 340 339 340 343 343 345 333 282 263 38 344 302 249 61 81 21 355 327 287 358 343 21 26 330 21 11 28 360 15 341 37 113 59 23 296 119 313 48 251 213 166 148
295 305 318 330 331 334 336 340 343 343 343 326 260 264 73 348 267 257 71 88 89 42 333 323 353 332 21 8 355 59 38 69 1 345 336 346 286 89 300 343 360 165 191 53 304 339 317
288 300 314 330 331 329 334 338 343 346 340 287 294 305 66 297 312 27 64 49 346 136 196 275 297 329 351 356 14 39 28 31 5 333 354 25 318 161 52 87 328 299 331 305 312 84 35
267 292 310 329 333 329 333 336 339 345 359 320 324 315 141 273 25 71 131 134 244 205 205 229 275 354 352 349 305 12 16 40 358 347 2 5 212 176 184 186 188 264 172 327 294 320 233
249 272 296 316 330 326 330 334 336 342 347 284 298 320 66 67 49 8 155 108 172 196 287 308 321 268 282 323 34 37 66 88 357 355 338 298 295 310 342 27 333 210 217 224 256 251 253
233 256 281 303 322 325 330 335 336 341 342 283 7 46 4 350 78 73 280 182 182 213 220 253 221 277 325 297 287 12 16 185 199 82 263 325 306 351 294 288 267 271 255 211 210 229 252
232 246 263 287 302 314 326 339 344 340 338 302 328 313 178 59 295 266 158 187 241 215 251 177 271 72 308 321 347 343 331 332 11 165 312 155 320 288 263 289 268 270 256 243 234 248 260
241 240 244 252 283 306 324 342 349 349 338 14 88 141 280 133 203 271 73 141 168 204 192 303 297 268 254 329 328 1 340 323 339 321 321 295 287 310 262 332 305 266 251 217 215 223 233
234 241 244 244 260 288 311 338 350 8 5 338 24 299 268 211 237 249 169 275 222 224 296 156 252 271 53 32 232 236 227 245 225 194 305 293 276 305 293 285 234 93 67 22 210 249 226
60 53 13 281 256 263 285 319 341 11 1 21 38 330 316 282 299 226 222 231 217 212 239 250 155 39 315 251 269 263 193 224 175 0 239 263 260 250 274 261 302 165 200 177 182 213 206
53 56 48 45 45 39 352 310 336 337 12 326 33 324 306 311 66 354 284 280 283 244 209 179 135 146 215 262 248 266 290 9 161 171 78 237 267 274 236 273 266 66 134 104 217 254 164
60 50 47 39 33 35 29 26 5 320 355 325 17 315 285 285 79 262 287 326 4 300 300 140 160 187 258 222 239 232 233 28 246 226 169 174 210 235 238 260 278 119 137 159 238 71 152
67 60 52 44 34 26 21 23 29 20 319 268 11 249 316 302 288 221 241 219 209 242 274 107 201 181 189 232 250 229 256 146 267 148 194 199 197 211 220 243 261 141 125 226 89 109 143
51 61 51 40 35 21 16 20 18 14 13 202 253 144 251 250 306 222 243 263 270 310 312 195 346 165 258 245 259 307 230 220 264 256 183 230 225 289 223 251 53 184 336 168 160 195 209